Flag for Malaysia Weather past 2 weeks in Kuching, Malaysia

Now
81 °F

Partly cloudy.


Feels Like: 87 °F
Forecast: 78 / 88 °F
Wind: 2 mph from West

Location: Kuching Airport

Current Time: Aug 30, 2015 at 2:04:42 AM

Latest Report: Aug 30, 2015 at 1:30 AM


Visibility: 5 mi

Pressure: 29.83 "Hg

Humidity: 89%

Dew point: 77 °F

Location of KuchingLocation

Historic Weather in Kuching — Graph

°F

Kuching temperature yesterday

Maximum temperature yesterday: 93 °F (at 1:30 PM)
Minimum temperature yesterday: 77 °F (at 6:30 AM)
Average temperature yesterday: 85 °F

Past Weeks' High & Low Weather Summary

 TemperatureHumidityPressure
High93 °F (Aug 20, 2:00 PM)100% (Aug 15, 4:30 AM)29.92 "Hg (Aug 15, 4:30 AM)
Low73 °F (Aug 16, 12:30 AM)44% (Aug 21, 1:30 PM)29.71 "Hg (Aug 29, 4:00 PM)
Average81 °F83%29.84 "Hg
* Reported Midnight between Aug 14 and Aug 15 — Aug 30 12:30 AM, Kuching, Weather by CustomWeather, © 2015

Note: Actual official high and low records may vary slightly from our data, if they occured in-between our weather recording intervals... More about our weather records

Advertising

Kuching weather history for previous 24 hours

 ConditionsComfort  
Time TempWeatherWind HumidityBarometerVisibility
12:30 AM
Sun, Aug 30
81 °FPartly cloudy.5 mph89%29.83 "Hg5 mi
12:00 AM81 °FPartly cloudy.6 mph89%29.83 "Hg5 mi
11:30 PM
Sat, Aug 29
82 °FPartly cloudy.5 mph84%29.83 "Hg5 mi
11:00 PM82 °FPartly cloudy.3 mph84%29.83 "Hg5 mi
10:30 PM84 °FPartly cloudy.6 mph79%29.83 "Hg5 mi
10:00 PM84 °FPassing clouds.6 mph79%29.83 "Hg5 mi
9:30 PM84 °FPassing clouds.6 mph84%29.83 "Hg5 mi
9:00 PM84 °FPassing clouds.8 mph79%29.80 "Hg5 mi
8:30 PM86 °FPassing clouds.7 mph79%29.80 "Hg5 mi
7:30 PM88 °FPassing clouds.3 mph70%29.77 "Hg5 mi
7:00 PM90 °FPassing clouds.1 mph63%29.74 "Hg5 mi
6:00 PM91 °FPartly sunny.5 mph59%29.71 "Hg5 mi
5:30 PM93 °FPartly sunny.6 mph53%29.71 "Hg5 mi
5:00 PM93 °FPartly sunny.7 mph53%29.71 "Hg5 mi
4:30 PM93 °FBroken clouds.6 mph53%29.71 "Hg5 mi
4:00 PM93 °FBroken clouds.7 mph53%29.71 "Hg5 mi
3:30 PM93 °FBroken clouds.7 mph53%29.74 "Hg5 mi
3:00 PM93 °FBroken clouds.8 mph53%29.74 "Hg5 mi
2:00 PM91 °FBroken clouds.8 mph56%29.77 "Hg5 mi
1:30 PM93 °FBroken clouds.7 mph56%29.80 "Hg4 mi
1:00 PM91 °FBroken clouds.7 mph59%29.80 "Hg4 mi
12:30 PM91 °FBroken clouds.9 mph59%29.83 "Hg4 mi
12:00 PM90 °FBroken clouds.8 mph63%29.86 "Hg4 mi
11:30 AM90 °FBroken clouds.7 mph63%29.86 "Hg4 mi
11:00 AM88 °FBroken clouds.8 mph66%29.89 "Hg4 mi
10:30 AM88 °FBroken clouds.6 mph70%29.89 "Hg4 mi
10:00 AM86 °FPartly sunny.7 mph75%29.89 "Hg3 mi
9:30 AM86 °FPartly sunny.5 mph75%29.89 "Hg3 mi
9:00 AM84 °FPartly sunny.3 mph79%29.89 "Hg3 mi
8:30 AM82 °FPartly sunny.2 mph84%29.89 "Hg3 mi
8:00 AM81 °FBroken clouds.No wind89%29.89 "Hg3 mi
7:30 AM79 °FBroken clouds.1 mph94%29.86 "Hg3 mi
7:00 AM77 °FPartly sunny.1 mph100%29.86 "Hg3 mi
6:30 AM77 °FPassing clouds.No wind100%29.83 "Hg2 mi
6:00 AM79 °FPartly cloudy.1 mph94%29.83 "Hg4 mi
5:30 AM79 °FPartly cloudy.2 mph94%29.83 "Hg4 mi
5:00 AM79 °FPartly cloudy.2 mph94%29.83 "Hg4 mi
4:30 AM79 °FPartly cloudy.No wind94%29.83 "Hg4 mi
4:00 AM79 °FPartly cloudy.1 mph94%29.83 "Hg5 mi
3:30 AM79 °FPartly cloudy.2 mph94%29.83 "Hg5 mi
3:00 AM79 °FPartly cloudy.3 mph94%29.83 "Hg5 mi
2:30 AM81 °FPartly cloudy.3 mph89%29.83 "Hg5 mi
2:00 AM81 °FPartly cloudy.3 mph89%29.83 "Hg5 mi
Weather by CustomWeather, © 2015

See weather overviewHow to use our weather pages